Aérodrome :
LOGIN :

S'inscrire | Disclaimer

   EN    FR    IT 

 










Légende :    VFR   VFR Marginal   IFR   IFR Intensif   IFR Très Intensif
Visi : 
Plafond : 
>= 8 km
>= 3000ft
5 à 8 km
1000 à 3000 ft
1500m à 5 km
500 à 1000 ft
800 à 1500m
200 à 500 ft
< 800m
< 200 ft
Symboles :   Orages  Brouillard  Fortes neiges  Fortes précipitations  Vent > 20 kt
SIGMETs :   Divers  Orages  Givrage  Turbulence  Onde Orograph.  Cendres Volcan.







- Altitude de l'aérodrome : 218 ft
- Code IATA : LBG
- Voir les cartes d'approche


LFPB - Paris / Le Bourget

DERNIER METAR :
  • 212130Z AUTO 01007KT CAVOK 13/04 Q1028 NOSIG

METARs EXPIRÉS :
  • 212100Z AUTO 01007KT 340V040 CAVOK 14/04 Q1027 NOSIG
  • 212030Z AUTO 01010KT CAVOK 14/05 Q1027 NOSIG
  • 212000Z AUTO 01009KT 340V040 CAVOK 15/05 Q1027 NOSIG
  • 211930Z AUTO 36010KT 330V030 CAVOK 16/05 Q1026 NOSIG
  • 211900Z AUTO 01011KT 330V040 CAVOK 17/05 Q1026 NOSIG

TAF TAF LFPB
Valide du 21 à 18h jusqu'au 22 à 18h UTC


211700Z 2118/2218 01010KT CAVOK
ATIS : +33 1 48 62 43 92
Pas de NOTAMs connus pour ce terrain.



MET'MAP, la Météo Aéronautique d'un coup d'oeil ! - Copyright ORBIFLY Décembre 2007 - Disclaimer

ORBIFLY MET'MAP TEAM :

Programmation & Développement : Alexandra Zaïnal
Conception & Développement : Baudouin d'Aumeries
Co-Programmation & Développement : Marc-Olivier Méhu
Soutien technique & logistique : Manuel Goepfert

Contact : metmap@orbifly.com




SOURCES & CREDITS :

   NOAA